• In Hungary
  • List of Countries
  • For 7 days
  • Water Temperature
  • Satellite Maps
  • Weather Map
  • News
  • Weather Widgets
  • user-avatar
    Login

    Hourly Weather Memphis

    Today, 21 February, Wednesday

    Time Temperature Precipitation Wind Pressure Humidity
    00:00 +22°C° 0.2 mm 7 mps 757 mmHg 86%
    01:00 +21°C° 1.3 mm 7 mps 757 mmHg 88%
    02:00 +21°C° 1.3 mm 6 mps 758 mmHg 90%
    03:00 +20°C° 1.3 mm 6 mps 758 mmHg 91%
    04:00 +19°C° 2.1 mm 6 mps 759 mmHg 91%
    05:00 +16°C° 2.1 mm 5 mps 760 mmHg 92%
    06:00 +14°C° 2.1 mm 5 mps 760 mmHg 92%
    07:00 +13°C° 1.9 mm 5 mps 761 mmHg 91%
    08:00 +11°C° 1.9 mm 6 mps 761 mmHg 90%
    09:00 +10°C° 1.9 mm 6 mps 762 mmHg 89%
    10:00 +9°C° 3.1 mm 6 mps 762 mmHg 90%
    11:00 +8°C° 3.1 mm 6 mps 763 mmHg 91%
    12:00 +7°C° 3.1 mm 6 mps 763 mmHg 91%
    13:00 +7°C° 2.1 mm 6 mps 763 mmHg 91%
    14:00 +7°C° 2.1 mm 6 mps 763 mmHg 91%
    15:00 +7°C° 2.1 mm 6 mps 763 mmHg 91%
    16:00 +7°C° 2.2 mm 6 mps 762 mmHg 91%
    17:00 +7°C° 2.2 mm 6 mps 762 mmHg 91%
    18:00 +7°C° 2.2 mm 6 mps 762 mmHg 92%
    19:00 +7°C° 3.9 mm 5 mps 762 mmHg 92%
    20:00 +8°C° 3.9 mm 5 mps 762 mmHg 93%
    21:00 +8°C° 3.9 mm 4 mps 762 mmHg 94%
    22:00 +8°C° 3.3 mm 4 mps 762 mmHg 94%
    23:00 +8°C° 3.3 mm 4 mps 762 mmHg 94%

    Tomorrow, 22 February, Thursday

    Time Temperature Precipitation Wind Pressure Humidity
    00:00 +8°C° 3.3 mm 4 mps 762 mmHg 94%
    01:00 +8°C° 1.4 mm 4 mps 762 mmHg 94%
    02:00 +9°C° 1.4 mm 3 mps 762 mmHg 95%
    03:00 +9°C° 1.4 mm 3 mps 762 mmHg 95%
    04:00 +9°C° 1.5 mm 3 mps 762 mmHg 95%
    05:00 +9°C° 1.5 mm 3 mps 762 mmHg 95%
    06:00 +9°C° 1.5 mm 2 mps 762 mmHg 95%
    07:00 +9°C° 1.1 mm 3 mps 762 mmHg 95%
    08:00 +9°C° 1.1 mm 3 mps 763 mmHg 94%
    09:00 +9°C° 1.1 mm 3 mps 764 mmHg 94%
    10:00 +10°C° 0.3 mm 3 mps 764 mmHg 92%
    11:00 +11°C° 0.3 mm 3 mps 764 mmHg 89%
    12:00 +13°C° 0.3 mm 2 mps 764 mmHg 87%
    13:00 +14°C° 0.1 mm 2 mps 763 mmHg 86%
    14:00 +15°C° 0.1 mm 2 mps 762 mmHg 84%
    15:00 +17°C° 0.1 mm 2 mps 762 mmHg 82%
    16:00 +16°C° 0.1 mm 2 mps 762 mmHg 85%
    17:00 +16°C° 0.1 mm 2 mps 761 mmHg 89%
    18:00 +15°C° 0.1 mm 2 mps 761 mmHg 92%
    19:00 +16°C° 0.8 mm 2 mps 761 mmHg 93%
    20:00 +16°C° 0.8 mm 2 mps 761 mmHg 95%
    21:00 +16°C° 0.8 mm 2 mps 761 mmHg 97%
    22:00 +16°C° 0.8 mm 2 mps 761 mmHg 97%
    23:00 +17°C° 0.8 mm 2 mps 761 mmHg 97%

    Day after tomorrow, 23 February, Friday

    Time Temperature Precipitation Wind Pressure Humidity
    00:00 +18°C° 0.8 mm 3 mps 760 mmHg 97%
    01:00 +18°C° 1.2 mm 3 mps 760 mmHg 96%
    02:00 +19°C° 1.2 mm 4 mps 760 mmHg 96%
    03:00 +19°C° 1.2 mm 5 mps 759 mmHg 95%
    04:00 +19°C° 1.7 mm 5 mps 759 mmHg 95%
    05:00 +19°C° 1.7 mm 5 mps 759 mmHg 95%
    06:00 +20°C° 1.7 mm 5 mps 759 mmHg 95%
    07:00 +20°C° 2.2 mm 5 mps 760 mmHg 95%
    08:00 +20°C° 2.2 mm 5 mps 760 mmHg 94%
    09:00 +20°C° 2.2 mm 5 mps 760 mmHg 93%
    10:00 +20°C° 2.4 mm 5 mps 760 mmHg 93%
    11:00 +21°C° 2.4 mm 5 mps 760 mmHg 92%
    12:00 +21°C° 2.4 mm 4 mps 760 mmHg 91%
    13:00 +21°C° 2.5 mm 4 mps 759 mmHg 90%
    14:00 +21°C° 2.5 mm 3 mps 758 mmHg 90%
    15:00 +21°C° 2.5 mm 3 mps 758 mmHg 89%
    16:00 +20°C° 1.4 mm 2 mps 757 mmHg 91%
    17:00 +20°C° 1.4 mm 2 mps 757 mmHg 93%
    18:00 +20°C° 1.4 mm 1 mps 757 mmHg 95%
    19:00 +20°C° 0.2 mm 1 mps 757 mmHg 95%
    20:00 +19°C° 0.2 mm 2 mps 757 mmHg 95%
    21:00 +19°C° 0.2 mm 2 mps 757 mmHg 95%
    22:00 +19°C° 0.4 mm 3 mps 756 mmHg 95%
    23:00 +19°C° 0.4 mm 3 mps 756 mmHg 94%

    24 February, Saturday

    Time Temperature Precipitation Wind Pressure Humidity
    00:00 +19°C° 0.4 mm 4 mps 755 mmHg 94%
    01:00 +19°C° 0.2 mm 5 mps 754 mmHg 93%
    02:00 +19°C° 0.2 mm 5 mps 754 mmHg 93%
    03:00 +20°C° 0.2 mm 6 mps 753 mmHg 93%
    04:00 +20°C° 0.1 mm 6 mps 753 mmHg 93%
    05:00 +20°C° 0.1 mm 6 mps 753 mmHg 93%
    06:00 +20°C° 0.1 mm 6 mps 752 mmHg 92%
    07:00 +20°C° 0.1 mm 6 mps 752 mmHg 92%
    08:00 +21°C° 0.1 mm 6 mps 752 mmHg 91%
    09:00 +21°C° 0.1 mm 6 mps 752 mmHg 90%
    10:00 +21°C° 0.1 mm 7 mps 752 mmHg 88%
    11:00 +21°C° 0.1 mm 7 mps 751 mmHg 87%
    12:00 +21°C° 0.1 mm 8 mps 751 mmHg 85%
    13:00 +21°C° 0.1 mm 8 mps 750 mmHg 82%
    14:00 +22°C° 0.1 mm 8 mps 749 mmHg 80%
    15:00 +22°C° 0.1 mm 9 mps 747 mmHg 78%
    16:00 +22°C° 0.7 mm 9 mps 747 mmHg 80%
    17:00 +22°C° 0.7 mm 9 mps 747 mmHg 81%
    18:00 +21°C° 0.7 mm 9 mps 747 mmHg 83%
    19:00 +20°C° 3.5 mm 8 mps 747 mmHg 80%
    20:00 +18°C° 3.5 mm 8 mps 748 mmHg 77%
    21:00 +17°C° 3.5 mm 7 mps 748 mmHg 74%
    22:00 +16°C° 0 mm 7 mps 749 mmHg 72%
    23:00 +14°C° 0 mm 7 mps 750 mmHg 69%

    25 February, Sunday

    Time Temperature Precipitation Wind Pressure Humidity
    00:00 +11°C° 0 mm 6 mps 752 mmHg 67%
    01:00 +10°C° 0 mm 6 mps 753 mmHg 69%
    02:00 +8°C° 0 mm 5 mps 753 mmHg 70%
    03:00 +7°C° 0 mm 4 mps 754 mmHg 72%
    04:00 +7°C° 0 mm 3 mps 755 mmHg 73%
    05:00 +7°C° 0 mm 3 mps 756 mmHg 74%
    06:00 +6°C° 0 mm 2 mps 756 mmHg 76%
    07:00 +7°C° 0 mm 2 mps 757 mmHg 69%
    08:00 +9°C° 0 mm 1 mps 758 mmHg 63%
    09:00 +10°C° 0 mm 1 mps 759 mmHg 57%
    10:00 +11°C° 0 mm 1 mps 759 mmHg 52%
    11:00 +13°C° 0 mm 1 mps 759 mmHg 47%
    12:00 +14°C° 0 mm 1 mps 758 mmHg 41%
    13:00 +15°C° 0 mm 1 mps 758 mmHg 40%
    14:00 +15°C° 0 mm 1 mps 758 mmHg 38%
    15:00 +15°C° 0 mm 0 mps 757 mmHg 36%
    16:00 +14°C° 0 mm 0 mps 758 mmHg 39%
    17:00 +13°C° 0 mm 0 mps 758 mmHg 43%
    18:00 +12°C° 0 mm 0 mps 758 mmHg 47%
    19:00 +12°C° 0 mm 1 mps 758 mmHg 49%
    20:00 +12°C° 0 mm 1 mps 758 mmHg 52%
    21:00 +11°C° 0 mm 1 mps 759 mmHg 54%
    22:00 +10°C° 0 mm 1 mps 759 mmHg 57%
    23:00 +10°C° 0 mm 1 mps 759 mmHg 59%

    26 February, Monday

    Time Temperature Precipitation Wind Pressure Humidity
    00:00 +9°C° 0 mm 1 mps 759 mmHg 62%
    01:00 +9°C° 0 mm 1 mps 759 mmHg 63%
    02:00 +9°C° 0 mm 1 mps 759 mmHg 64%
    03:00 +9°C° 0 mm 1 mps 759 mmHg 65%
    04:00 +8°C° 0 mm 1 mps 760 mmHg 66%
    05:00 +8°C° 0 mm 1 mps 760 mmHg 66%
    06:00 +8°C° 0 mm 1 mps 760 mmHg 67%
    07:00 +8°C° 0 mm 2 mps 761 mmHg 65%
    08:00 +9°C° 0 mm 2 mps 762 mmHg 63%
    09:00 +10°C° 0 mm 3 mps 763 mmHg 61%
    10:00 +11°C° 0 mm 3 mps 763 mmHg 59%
    11:00 +12°C° 0 mm 4 mps 763 mmHg 58%
    12:00 +13°C° 0 mm 4 mps 763 mmHg 56%
    13:00 +13°C° 0 mm 4 mps 762 mmHg 56%
    14:00 +14°C° 0 mm 3 mps 762 mmHg 55%
    15:00 +14°C° 0 mm 3 mps 762 mmHg 55%
    16:00 +13°C° 0 mm 3 mps 762 mmHg 60%
    17:00 +12°C° 0 mm 3 mps 762 mmHg 64%
    18:00 +10°C° 0 mm 2 mps 762 mmHg 68%
    19:00 +10°C° 0 mm 2 mps 762 mmHg 71%
    20:00 +9°C° 0 mm 2 mps 763 mmHg 73%
    21:00 +8°C° 0 mm 2 mps 763 mmHg 75%
    22:00 +8°C° 0 mm 2 mps 763 mmHg 77%
    23:00 +7°C° 0 mm 2 mps 763 mmHg 78%
    Show more